Weather reports worldwide

Advertisment
Islay/Port Ellen, United Kingdom (3105): temperature & dewpoint: 28.05.2020 20:00:00 - 03.06.2020 20:00:00 (BST)Islay/Port Ellen, United Kingdom (3105): temperature -20cm & temperature -100cm: 28.05.2020 20:00:00 - 03.06.2020 20:00:00 (BST)Islay/Port Ellen, United Kingdom (3105): wind speed & gusts: 28.05.2020 20:00:00 - 03.06.2020 20:00:00 (BST)Islay/Port Ellen, United Kingdom (3105): wind direction: 28.05.2020 20:00:00 - 03.06.2020 20:00:00 (BST)Islay/Port Ellen, United Kingdom (3105): reduced air pressure: 28.05.2020 20:00:00 - 03.06.2020 20:00:00 (BST)Islay/Port Ellen, United Kingdom (3105): visibility: 28.05.2020 20:00:00 - 03.06.2020 20:00:00 (BST)Islay/Port Ellen, United Kingdom (3105): precipitation: 28.05.2020 20:00:00 - 03.06.2020 20:00:00 (BST)
Date & Time tt [°C] td [°C] tt -20cm [°C] tt -100cm [°C] ff [km/h] ff [kn] fx [km/h] fx [kn] dd ppp [hPa] vv [km] rr [mm]
03.06.2020 20:00:00 11,1 6,5 - - 34 18 48 26 NNW 1015,7 45 0,0
03.06.2020 19:00:00 12,0 5,9 - - 41 22 52 28 NNW 1015,7 45 0,0
03.06.2020 18:00:00 12,7 6,3 - - 39 21 50 27 NNW 1016,2 45 0,0
03.06.2020 17:00:00 13,0 6,3 - - 41 22 55 30 NNW 1016,7 50 0,0
03.06.2020 16:00:00 13,9 5,5 - - 41 22 52 28 NNW 1017,0 60 0,0
03.06.2020 15:00:00 14,5 5,9 - - 39 21 50 27 NNW 1017,2 50 0,0
03.06.2020 14:00:00 14,4 6,2 - - 35 19 48 26 N 1017,6 60 0,0
03.06.2020 13:00:00 13,3 4,9 - - 31 17 - - NNW 1017,7 75 0,0
03.06.2020 12:00:00 13,3 4,3 - - 26 14 - - N 1018,0 70 0,0
03.06.2020 11:00:00 13,4 5,7 - - 26 14 - - N 1018,2 75 0,0
03.06.2020 10:00:00 13,0 6,3 14,7 12,9 22 12 - - N 1018,3 70 0,0
03.06.2020 09:00:00 11,8 6,1 - - 26 14 48 26 N 1018,7 10 0,0
03.06.2020 08:00:00 11,1 6,2 - - 21 11 - - NNE 1018,4 70 0,0
03.06.2020 07:00:00 9,7 6,3 - - 16 9 - - N 1018,0 70 0,0
03.06.2020 06:00:00 8,9 6,2 - - 22 12 - - NNE 1017,6 50 0,0
03.06.2020 05:00:00 8,7 7,1 - - 22 12 46 25 NNE 1017,2 40 0,0
03.06.2020 04:00:00 9,6 7,9 - - 26 14 - - N 1016,7 40 0,0
03.06.2020 03:00:00 10,3 8,8 - - 22 12 - - NNE 1016,6 45 0,0
03.06.2020 02:00:00 11,1 10,1 - - 18 10 - - N 1016,6 65 0,0
03.06.2020 01:00:00 10,4 9,4 - - 18 10 - - N 1016,7 28 0,0
03.06.2020 00:00:00 11,1 10,1 - - 26 14 - - N 1017,0 50 0,0
02.06.2020 23:00:00 12,0 11,4 - - 18 10 - - NNW 1017,2 7 0,0
02.06.2020 22:00:00 12,2 11,2 - - 15 8 - - N 1017,5 16 0,0
02.06.2020 21:00:00 12,2 11,1 - - 11 6 - - NNW 1017,6 21 1,8
02.06.2020 20:00:00 12,9 11,3 - - 18 10 - - NNW 1017,8 10 0,2
02.06.2020 19:00:00 14,2 12,1 - - 21 11 - - NNW 1018,2 20 0,0
02.06.2020 18:00:00 15,4 10,6 - - 18 10 - - WNW 1018,4 40 0,0
02.06.2020 17:00:00 15,1 11,4 - - 15 8 - - WSW 1018,7 27 0,0
02.06.2020 16:00:00 18,2 8,7 - - 15 8 - - NW 1019,4 65 0,0
02.06.2020 15:00:00 15,8 12,1 - - 13 7 - - W 1020,2 35 0,0
02.06.2020 14:00:00 14,8 11,3 - - 13 7 - - WSW 1020,4 30 0,0
02.06.2020 13:00:00 15,9 10,7 - - 11 6 - - WSW 1020,8 35 0,0
02.06.2020 12:00:00 16,8 10,7 - - 13 7 - - W 1021,1 40 0,0
02.06.2020 11:00:00 15,7 11,5 - - 15 8 - - WSW 1021,6 30 0,0
02.06.2020 10:00:00 14,3 10,3 - - 9 5 - - WSW 1022,1 10 -
02.06.2020 09:00:00 14,4 11,1 - - 4 2 - - - 1022,1 10 -
02.06.2020 08:00:00 13,1 10,6 - - 4 2 - - - 1022,3 10 0,0
02.06.2020 07:00:00 13,1 10,2 - - 2 1 - - N 1022,4 55 0,0
02.06.2020 06:00:00 11,4 8,9 - - 4 2 - - SE 1022,4 55 0,0
02.06.2020 05:00:00 12,0 8,4 - - 13 7 - - SE 1022,7 50 0,0
02.06.2020 04:00:00 12,2 8,4 - - 9 5 - - SE 1023,1 55 0,0
02.06.2020 03:00:00 11,8 8,1 - - 9 5 - - ESE 1023,5 60 0,0
02.06.2020 02:00:00 9,9 7,2 - - 5 3 - - SE 1023,8 55 0,0
02.06.2020 01:00:00 10,7 6,7 - - 8 4 - - ESE 1024,3 65 0,0
02.06.2020 00:00:00 12,0 6,5 - - 4 2 - - ESE 1024,5 70 0,0
01.06.2020 23:00:00 13,7 6,6 - - 11 6 - - ESE 1024,6 75 0,0
01.06.2020 22:00:00 14,3 7,0 - - 11 6 - - ESE 1024,8 75 0,0
01.06.2020 21:00:00 16,5 7,3 - - 11 6 - - SE 1024,7 75 0,0
01.06.2020 20:00:00 18,4 7,0 - - 15 8 - - SE 1024,6 10 0,0
01.06.2020 19:00:00 18,9 7,7 - - 18 10 - - SE 1024,8 70 0,0
01.06.2020 18:00:00 19,6 7,8 - - 21 11 - - SE 1025,1 75 0,0
01.06.2020 17:00:00 19,7 6,8 - - 24 13 - - SE 1025,2 75 0,0
01.06.2020 16:00:00 20,0 8,6 - - 22 12 - - SSE 1025,5 75 0,0
01.06.2020 15:00:00 19,1 9,5 - - 24 13 - - SSE 1025,6 75 0,0
01.06.2020 14:00:00 18,2 8,8 - - 29 16 - - SSE 1026,1 50 0,0
01.06.2020 13:00:00 18,2 8,4 - - 29 16 - - SE 1026,2 60 0,0
01.06.2020 12:00:00 18,5 9,3 - - 26 14 - - SSE 1026,1 50 0,0
01.06.2020 11:00:00 18,0 8,7 - - 28 15 - - SE 1026,3 55 0,0
01.06.2020 10:00:00 17,6 8,3 14,0 12,5 26 14 - - SSE 1026,3 50 0,0
01.06.2020 09:00:00 17,3 9,0 - - 29 16 - - SE 1026,1 55 0,0
01.06.2020 08:00:00 16,5 9,0 - - 26 14 - - ESE 1025,8 10 0,0
01.06.2020 07:00:00 15,5 8,8 - - 22 12 - - ESE 1025,8 55 0,0
01.06.2020 06:00:00 14,8 8,2 - - 21 11 - - ESE 1025,8 55 0,0
01.06.2020 05:00:00 15,0 7,7 - - 24 13 - - ESE 1025,4 55 0,0
01.06.2020 04:00:00 13,7 8,0 - - 24 13 - - E 1025,1 60 0,0
01.06.2020 03:00:00 13,5 8,0 - - 24 13 - - E 1024,9 60 0,0
01.06.2020 02:00:00 11,0 5,5 - - 8 4 - - SE 1025,0 55 0,0
01.06.2020 01:00:00 11,0 5,5 - - 11 6 - - SE 1025,2 60 0,0
01.06.2020 00:00:00 10,3 5,4 - - 11 6 - - E 1025,0 60 0,0
31.05.2020 23:00:00 9,9 4,8 - - 5 3 - - ESE 1025,0 55 0,0
31.05.2020 22:00:00 11,4 5,7 - - 11 6 - - ESE 1024,8 60 0,0
31.05.2020 21:00:00 16,3 7,4 - - 5 3 - - SE 1024,4 65 0,0
31.05.2020 20:00:00 16,6 5,5 - - 9 5 - - SE 1024,2 65 0,0
31.05.2020 19:00:00 18,1 4,6 - - 13 7 - - SE 1024,1 75 0,0
31.05.2020 18:00:00 19,1 5,1 - - 18 10 - - SE 1024,0 10 0,0
31.05.2020 17:00:00 18,6 6,6 - - 21 11 - - SE 1024,2 10 0,0
31.05.2020 16:00:00 19,1 6,1 - - 26 14 - - SE 1024,5 10 0,0
31.05.2020 15:00:00 18,4 7,6 - - 28 15 - - SSE 1024,8 45 0,0
31.05.2020 14:00:00 18,5 8,0 - - 26 14 - - SSE 1024,8 55 0,0
31.05.2020 13:00:00 19,6 7,1 - - 29 16 46 25 SE 1024,8 60 0,0
31.05.2020 12:00:00 19,0 7,3 - - 37 20 52 28 SE 1024,7 60 0,0
31.05.2020 11:00:00 18,6 7,6 - - 37 20 54 29 SE 1024,3 65 0,0
31.05.2020 10:00:00 17,1 7,2 14,0 12,4 35 19 52 28 ESE 1024,0 50 0,0
31.05.2020 09:00:00 16,5 7,6 - - 35 19 50 27 ESE 1024,0 50 0,0
31.05.2020 08:00:00 15,9 7,3 - - 34 18 46 25 ESE 1023,8 55 0,0
31.05.2020 07:00:00 14,9 7,9 - - 34 18 - - ESE 1023,3 55 0,0
31.05.2020 06:00:00 14,1 7,7 - - 29 16 - - ESE 1023,2 45 0,0
31.05.2020 05:00:00 13,0 8,0 - - 31 17 46 25 ESE 1022,7 45 0,0
31.05.2020 04:00:00 12,8 8,0 - - 34 18 48 26 E 1022,5 45 0,0
31.05.2020 03:00:00 13,2 8,4 - - 31 17 46 25 E 1022,5 50 0,0
31.05.2020 02:00:00 13,5 8,5 - - 26 14 - - E 1022,5 50 0,0
31.05.2020 01:00:00 13,7 8,3 - - 28 15 - - E 1022,5 55 0,0
31.05.2020 00:00:00 14,1 7,0 - - 26 14 - - E 1022,5 75 0,0
30.05.2020 23:00:00 12,7 6,0 - - 11 6 - - SE 1022,4 65 0,0
30.05.2020 22:00:00 11,5 6,1 - - 13 7 - - SE 1022,4 65 0,0
30.05.2020 21:00:00 15,2 5,9 - - 15 8 - - SE 1022,1 75 0,0
30.05.2020 20:00:00 15,4 5,2 - - 21 11 - - SE 1022,1 75 0,0
30.05.2020 19:00:00 16,4 4,7 - - 24 13 - - SE 1022,1 70 0,0
30.05.2020 18:00:00 16,6 4,6 - - 22 12 - - SE 1022,4 75 0,0
30.05.2020 17:00:00 17,5 7,0 - - 26 14 - - SE 1022,7 65 0,0
30.05.2020 16:00:00 17,3 6,3 - - 31 17 - - SSE 1023,1 70 0,0
30.05.2020 15:00:00 16,4 7,4 - - 29 16 - - SSE 1023,5 50 0,0
30.05.2020 14:00:00 18,1 7,8 - - 29 16 50 27 SE 1023,6 70 0,0
30.05.2020 13:00:00 16,8 8,0 - - 34 18 48 26 SSE 1023,8 45 0,0
30.05.2020 12:00:00 16,5 7,4 - - 35 19 46 25 SE 1023,8 60 0,0
30.05.2020 11:00:00 16,4 7,7 - - 29 16 - - SSE 1023,9 65 0,0
30.05.2020 10:00:00 17,4 8,8 13,7 12,2 29 16 - - SE 1023,7 55 0,0
30.05.2020 09:00:00 16,2 9,0 - - 29 16 - - SE 1023,7 55 0,0
30.05.2020 08:00:00 15,3 8,9 - - 31 17 - - SE 1023,6 50 0,0
30.05.2020 07:00:00 15,0 9,0 - - 28 15 - - SE 1023,5 50 0,0
30.05.2020 06:00:00 14,2 9,1 - - 26 14 - - SE 1023,4 45 0,0
30.05.2020 05:00:00 14,5 8,3 - - 26 14 - - ESE 1023,1 55 0,0
30.05.2020 04:00:00 14,2 6,1 - - 21 11 - - ESE 1023,3 65 0,0
30.05.2020 03:00:00 13,2 6,5 - - 13 7 - - SE 1023,2 60 0,0
30.05.2020 02:00:00 13,9 5,7 - - 22 12 - - SE 1023,0 65 0,0
30.05.2020 01:00:00 14,3 5,9 - - 21 11 - - SSE 1023,0 65 0,0
30.05.2020 00:00:00 15,5 4,8 - - 26 14 - - SE 1023,0 75 0,0
29.05.2020 23:00:00 12,6 5,5 - - 18 10 - - SE 1023,2 70 0,0
29.05.2020 22:00:00 14,0 5,7 - - 22 12 - - SE 1023,4 60 0,0
29.05.2020 21:00:00 15,2 5,9 - - 22 12 - - SE 1023,0 55 0,0
29.05.2020 20:00:00 16,9 5,8 - - 31 17 50 27 SE 1022,9 65 0,0
29.05.2020 19:00:00 18,0 6,8 - - 39 21 59 32 SE 1022,9 60 0,0
29.05.2020 18:00:00 18,0 7,0 - - 44 24 59 32 SE 1023,1 60 0,0
29.05.2020 17:00:00 17,7 7,1 - - 41 22 57 31 SE 1023,5 55 0,0
29.05.2020 16:00:00 18,0 8,2 - - 41 22 61 33 SE 1023,6 45 0,0
29.05.2020 15:00:00 18,6 7,2 - - 46 25 63 34 SE 1023,9 50 0,0
29.05.2020 14:00:00 18,6 7,9 - - 48 26 65 35 SE 1024,4 50 0,0
29.05.2020 13:00:00 17,9 10,3 - - 31 17 - - SSE 1025,3 40 0,0
29.05.2020 12:00:00 17,5 10,9 - - 31 17 - - SSE 1025,9 40 0,0
29.05.2020 11:00:00 18,5 11,7 - - 28 15 48 26 SE 1025,9 40 0,0
29.05.2020 10:00:00 16,9 11,2 13,7 12,0 29 16 - - SE 1026,4 40 0,0
29.05.2020 09:00:00 16,1 11,0 - - 29 16 - - ESE 1026,3 10 0,0
29.05.2020 08:00:00 16,6 10,3 - - 34 18 - - SE 1026,3 50 0,0
29.05.2020 07:00:00 16,4 10,2 - - 26 14 - - SE 1026,3 60 0,0
29.05.2020 06:00:00 14,2 9,1 - - 22 12 - - SE 1026,8 50 0,0
29.05.2020 05:00:00 14,0 8,7 - - 21 11 - - SE 1026,9 45 0,0
29.05.2020 04:00:00 14,6 8,9 - - 22 12 - - SE 1027,2 40 0,0
29.05.2020 03:00:00 14,6 8,9 - - 26 14 - - SE 1027,3 45 0,0
29.05.2020 02:00:00 15,1 8,3 - - 28 15 - - SE 1027,5 50 0,0
29.05.2020 01:00:00 14,5 8,3 - - 24 13 - - SE 1027,7 55 0,0
29.05.2020 00:00:00 14,6 7,9 - - 24 13 - - SE 1028,0 60 0,0
28.05.2020 23:00:00 14,3 7,5 - - 21 11 - - SE 1028,2 65 0,0
28.05.2020 22:00:00 13,3 7,6 - - 16 9 - - SSE 1028,5 60 0,0
28.05.2020 21:00:00 14,6 8,2 - - 16 9 - - SE 1028,8 50 0,0
28.05.2020 20:00:00 15,6 10,0 - - 16 9 - - SE 1028,9 40 0,0

tt = temperature
td = dewpoint
tt -20cm = temperature -20cm
tt -100cm = temperature -100cm
ff = wind speed
fx = gusts
dd = wind direction
ppp = reduced air pressure
vv = visibility
rr = precipitation

Next stations